Skip Page Navigation
NASA JPL Caltech
NASA Logo - Jet Propulsion Laboratory + View the NASA Portal
+ Center for Near-Earth Object Studies
JPL Home Earth Solar System Stars & Galaxies Technology
JPL Solar System Dynamics
BODIES ORBITS EPHEMERIDES TOOLS PHYSICAL DATA DISCOVERY FAQ SITE MAP
IMPORTANT: The SSD Announcement email list is now available. Major changes are coming in the near future, including possible hostname and/or URL changes. To be notified of such changes, subscribe to this email list.

Please visit this page for more details.


JPL Small-Body Database Browser
Search: [ help ]  
13386 (1998 XG80)
Classification: Main-belt Asteroid          SPK-ID: 2013386
Ephemeris | Orbit Diagram | Orbital Elements | Mission Design | Physical Parameters | Discovery Circumstances | Close-Approach Data ]

[ show orbit diagram ]
Orbital Elements at Epoch 2459000.5 (2020-May-31.0) TDB
Reference: JPL 29 (heliocentric ecliptic J2000)
 Element Value Uncertainty (1-sigma)   Units 
e .1408668733677165 5.0425e-08  
a 3.170178978873142 2.7103e-08 au
q 2.723605778103222 1.6338e-07 au
i 15.58050197454221 5.1407e-06 deg
node 116.9210392613658 1.7929e-05 deg
peri 231.5826573375289 2.3805e-05 deg
M 1.700783526884749 1.8714e-05 deg
tp 2458990.759737983206
(2020-May-21.25973798)
0.00010712 TDB
period 2061.693490451647
5.64
2.6439e-05
7.239e-08
d
yr
n .1746137346153895 2.2392e-09 deg/d
Q 3.616752179643061 3.0921e-08 au
  Orbit Determination Parameters
   # obs. used (total)      1735  
   data-arc span      10298 days (28.19 yr)  
   first obs. used      1991-07-06  
   last obs. used      2019-09-15  
   planetary ephem.      DE431  
   SB-pert. ephem.      SB431-N16  
   condition code      0  
   norm. resid. RMS      .49373  
   source      ORB  
   producer      Otto Matic  
   solution date      2019-Sep-24 01:14:54  

Additional Information
 Earth MOID = 1.74498 au 
 Jupiter MOID = 1.83082 au 
 T_jup = 3.130 
[ show covariance matrix ]

Ephemeris | Orbit Diagram | Orbital Elements | Mission Design | Physical Parameters | Discovery Circumstances | Close-Approach Data ]

Physical Parameter Table
Parameter Symbol Value Units Sigma Reference Notes
absolute magnitude H 12.4   n/a MPO365411  
diameter diameter 12.641 km 0.127 urn:nasa:pds:neowise_diameters_albedos::2.0[mainbelt] (http://adsabs.harvard.edu/abs/2014ApJ...791..121M)  
geometric albedo albedo 0.160   0.036 urn:nasa:pds:neowise_diameters_albedos::2.0[mainbelt] (http://adsabs.harvard.edu/abs/2014ApJ...791..121M)  

13386 (1998 XG80)          Discovered 1998-Dec-15 by LINEAR at Socorro
Reference: 20000124/Numbers.arcLast Updated: 2004-04-19

[ show close-approach data ]
Alternate Designations
 1998 XG80 = 1991 NL3 
Ephemeris | Orbit Diagram | Orbital Elements | Mission Design | Physical Parameters | Discovery Circumstances | Close-Approach Data ]
ABOUT SSD CREDITS/AWARDS PRIVACY/COPYRIGHT GLOSSARY LINKS
FirstGov 2020-Apr-07 18:19 UT
(server date/time)  
NASA Home Page
Site Manager:   Ryan S. Park
Webmaster  Alan B. Chamberlin